Location: Ward Pound Ridge Reservation
(41.2500°N, 73.6000°W)
Time: 20:21:58
(UTC-04:00)

Envisat - Pass Details

Date: 11 October 2017
Orbit: 764 x 766 km, 98.2° (Epoch: 17 October)

Event Time Altitude Azimuth Distance (km) Brightness Sun altitude
Exits shadow 20:30:43 64° 39° (NE) 850 3.0 -25.4°
Drops below altitude 10° 20:35:17 10° 352° (N) 2,310 5.7 -26.2°
Sets 20:37:37 0° 350° (N) 3,240 6.5 -26.6°
